This is the latest recevied weather packets stored in our database for station/object KF4LQQ-13. If no packets are shown the sender has not sent any weather packets the latest 10 day(s).
| Time | Temp. | Humidity | Pressure | Rain* | Wind** | Luminosity | Snow |
|---|---|---|---|---|---|---|---|
| 1777954543 | 24.44° C | - | 1013.1 hPa | 0 mm | - | - | - |
| 1777954237 | 25° C | - | 1013.1 hPa | 0 mm | - | - | - |
| 1777953942 | 25° C | - | 1013.1 hPa | 0 mm | - | - | - |
| 1777953427 | 25° C | - | 1013.3 hPa | 0 mm | - | - | - |
| 1777953341 | 25° C | - | 1013.3 hPa | 0 mm | - | - | - |
| 1777952853 | 25° C | - | 1013.2 hPa | 0 mm | - | - | - |
| 1777952741 | 25° C | - | 1013.2 hPa | 0 mm | - | - | - |
| 1777952586 | 25° C | - | 1013.2 hPa | 0 mm | - | - | - |
| 1777952140 | 25° C | - | 1013.2 hPa | 0 mm | - | - | - |
| 1777952103 | 25.56° C | - | 1013.1 hPa | 0 mm | - | - | - |
| 1777951540 | 25.56° C | - | 1013.1 hPa | 0 mm | - | - | - |
| 1777950940 | 25.56° C | - | 1013.4 hPa | 0 mm | - | - | - |
| 1777950339 | 26.11° C | - | 1013.2 hPa | 0 mm | - | - | - |
| 1777949737 | 26.11° C | - | 1013.3 hPa | 0 mm | - | - | - |
| 1777949137 | 25.56° C | - | 1013 hPa | 0 mm | - | - | - |
| 1777948536 | 26.11° C | - | 1012.9 hPa | 0 mm | - | - | - |
| 1777947936 | 26.11° C | - | 1012.9 hPa | 0 mm | - | - | - |
| 1777947336 | 26.11° C | - | 1012.9 hPa | 0 mm | - | - | - |
| 1777946736 | 26.67° C | - | 1013 hPa | 0 mm | - | - | - |
| 1777946135 | 26.67° C | - | 1012.9 hPa | 0 mm | - | - | - |
| 1777945535 | 26.67° C | - | 1012.7 hPa | 0 mm | - | - | - |
| 1777944935 | 27.22° C | - | 1012.5 hPa | 0 mm | - | - | - |
| 1777944736 | 27.22° C | - | 1012.3 hPa | 0 mm | - | - | - |
| 1777944335 | 27.22° C | - | 1012.3 hPa | 0 mm | - | - | - |
| 1777944263 | 27.22° C | - | 1012.2 hPa | 0 mm | - | - | - |
* Rain since midnight (hover to see other rain measurements)
** Current wind speed in m/s (hover to see current wind gust speed)